Regional Weather Roundup
Issued by NWS

Home | Current Version | Previous Version | Graphics & Text | Print | Product List | Glossary On
Versions: 1 2 3 4 5 6 7 8 9 10 11 12 13 14 15 16 17 18 19 20 21 22 23 24 25 26 27 28 29 30 31 32 33 34 35 36 37 38 39 40 41 42 43 44 45 46 47 48 49 50
983
ASUS43 KIND 230459
RWRIN

WEATHER ROUNDUP FOR INDIANA
NATIONAL WEATHER SERVICE INDIANAPOLIS IN
1200 AM EST TUE JAN 23 2018

NOTE: "FAIR" INDICATES FEW OR NO CLOUDS BELOW 12,000 FEET WITH NO
SIGNIFICANT WEATHER AND/OR OBSTRUCTIONS TO VISIBILITY.

* - STATION DOES NOT REPORT WEATHER SUCH AS PRECIPITATION OR FOG.

+ - STATION NOT QUALITY CONTROLLED BY THE NATIONAL WEATHER SERVICE.
    USE DATA WITH CAUTION...ESPECIALLY DEWPOINT AND RELATIVE
    HUMIDITY OBSERVATIONS.

INZ001>003-010>013-019-020-230600-
NORTHWEST INDIANA

CITY           SKY/WX    TMP DP  RH WIND       PRES   REMARKS
KNOX *+        FAIR      37  34  87 W7        29.53F WCI  32
MICHIGAN CITY+ FAIR      37  32  81 SW9       29.53R WCI  31
MONTICELLO +   FAIR      35  33  94 SW5       29.57S WCI  31

$$

LMZ046-743>745-230600-
SOUTHERN LAKE MICHIGAN

STATION/POSITION TIME  TEMP    WIND        PRES    WAVE
                       AIR SEA DIR/SP/G            HT
                 (UTC) (F)     (DEG/KT/KT) (MB)    (FT)
BURNS HARBOR     0440   41     210/ 11/ 16 1000.7R
MICHIGAN CITY    0430   41     190/ 11/ 12   N/A

$$

INZ004-005-014>016-021>024-230600-
NORTH CENTRAL INDIANA

CITY           SKY/WX    TMP DP  RH WIND       PRES   REMARKS
GOSHEN         MOCLDY    41  36  82 W10       29.52F
PERU/GRISSOM   FAIR      35  35 100 W7        29.57S WCI  29
SOUTH BEND     CLOUDY    40  34  79 SW8       29.52F WCI  34

$$

INZ006>009-017-018-025>027-230600-
NORTHEAST INDIANA

CITY           SKY/WX    TMP DP  RH WIND       PRES   REMARKS
FORT WAYNE     FAIR      40  36  86 W13       29.56R WCI  32
KENDALLVILLE + CLOUDY    41  38  89 W17G30    29.53S

$$

INZ028-029-035-036-043>045-051>053-230600-
WEST CENTRAL INDIANA

CITY           SKY/WX    TMP DP  RH WIND       PRES   REMARKS
GREENCASTLE +  CLOUDY    41  32  70 SW6G16    29.61F
LAFAYETTE      FAIR      36  34  92 CALM      29.57F
TERRE HAUTE    CLOUDY    41  34  76 S6        29.62F

$$

INZ030>032-037>040-046>048-054>057-064-065-230600-
CENTRAL INDIANA

CITY           SKY/WX    TMP DP  RH WIND       PRES   REMARKS
GREENWOOD *+   FAIR      42  37  83 CALM      29.62F
INDIANAPOLIS   MOCLDY    38  35  89 CALM      29.61S
-EAGLE CREEK   FAIR      39  35  86 CALM      29.60S
MT COMFORT *+  FAIR      36  36 100 SW3       29.62S
SHELBYVILLE    FAIR      41  35  79 NW5       29.62R

$$

INZ033-034-041-042-049-050-058-059-230600-
EAST CENTRAL INDIANA

CITY           SKY/WX    TMP DP  RH WIND       PRES   REMARKS
MUNCIE         FAIR      41  36  82 W8        29.60R
RICHMOND +     FAIR      45  41  87 W15       29.60S

$$

INZ060-061-067>069-081>083-085>088-230600-
SOUTHWEST INDIANA

CITY           SKY/WX    TMP DP  RH WIND       PRES   REMARKS
EVANSVILLE     CLOUDY    46  34  62 SW20G29   29.67S
HUNTINGBURG +  CLOUDY    46  33  60 SW17G25   29.67S

$$

INZ062-063-066-070>080-084-089>092-230600-
SOUTH CENTRAL AND SOUTHEAST INDIANA

CITY           SKY/WX    TMP DP  RH WIND       PRES   REMARKS
BLOOMINGTON    CLOUDY    45  31  58 W9        29.63R
FRENCH LICK *+ CLOUDY    45  27  49 SW12G21   29.65F
SEYMOUR +      FAIR      46  30  53 SW12G17   29.64S

$$





USA.gov is the U.S. government's official web portal to all federal, state and local government web resources and services.